,,Stat5,,Stat1,,Stat2,,Stat3,,Stat4,,Wind1,,Wind1,
time,status,PA1M_AVG,status,PR1M_SUM,status,RH1M_AVG,status,SR1M_AVG,status,TA1M_AVG,status,W1dAve1m,status,W1sAve1m,
2001-10-26, 00:00:00,VALID,915.834,VALID,0,VALID,96.8696,VALID,0,VALID,20.0282,VALID,134,VALID,0.807692,
2001-10-26, 00:01:00,VALID,915.82,VALID,0,VALID,96.895,VALID,0.0339617,VALID,20.0116,VALID,128,VALID,0.631168,
2001-10-26, 00:02:00,VALID,915.82,VALID,0,VALID,96.9103,VALID,0.0169808,VALID,19.9895,VALID,122,VALID,0.641242,
2001-10-26, 00:03:00,VALID,915.805,VALID,0,VALID,96.9777,VALID,0,VALID,19.9601,VALID,129,VALID,0.576014,
2001-10-26, 00:04:00,VALID,915.778,VALID,0,VALID,96.9967,VALID,0,VALID,19.9708,VALID,106,VALID,0.580025,
2001-10-26, 00:05:00,VALID,915.766,VALID,0,VALID,96.937,VALID,0,VALID,19.9415,VALID,96,VALID,0.772748,
2001-10-26, 00:06:00,VALID,915.766,VALID,0,VALID,96.9675,VALID,0,VALID,19.9027,VALID,117,VALID,0.827508,
2001-10-26, 00:07:00,VALID,915.769,VALID,0,VALID,97.0476,VALID,-0.0169808,VALID,19.8863,VALID,137,VALID,0.60625,
2001-10-26, 00:08:00,VALID,915.767,VALID,0,VALID,97.1417,VALID,-0.0169808,VALID,19.8965,VALID,113,VALID,0.390408,
2001-10-26, 00:09:00,VALID,915.77,VALID,0,VALID,97.1277,VALID,-0.0169808,VALID,19.8901,VALID,76,VALID,0.304899,
2001-10-26, 00:10:00,VALID,915.755,VALID,0,VALID,97.1023,VALID,0,VALID,19.8409,VALID,58,VALID,0.472756,
2001-10-26, 00:11:00,VALID,915.746,VALID,0,VALID,97.2892,VALID,0,VALID,19.8379,VALID,72,VALID,0.510896,
2001-10-26, 00:12:00,VALID,915.73,VALID,0,VALID,97.4647,VALID,0,VALID,19.8506,VALID,95,VALID,0.581597,
2001-10-26, 00:13:00,VALID,915.73,VALID,0,VALID,97.4647,VALID,0,VALID,19.8508,VALID,99,VALID,0.575321,
2001-10-26, 00:14:00,VALID,915.724,VALID,0,VALID,97.4507,VALID,0,VALID,19.8384,VALID,112,VALID,0.492188,
2001-10-26, 00:15:00,VALID,915.735,VALID,0,VALID,97.5321,VALID,-0.0339617,VALID,19.8317,VALID,121,VALID,0.217928,
2001-10-26, 00:16:00,VALID,915.735,VALID,0,VALID,97.5473,VALID,-0.0169808,VALID,19.8349,VALID,105,VALID,0.554276,
2001-10-26, 00:17:00,VALID,915.734,VALID,0,VALID,97.5804,VALID,0,VALID,19.8252,VALID,122,VALID,0.706003,
2001-10-26, 00:18:00,VALID,915.733,VALID,0,VALID,97.5829,VALID,0,VALID,19.8153,VALID,115,VALID,0.790296,
2001-10-26, 00:19:00,VALID,915.737,VALID,0,VALID,97.5931,VALID,0,VALID,19.8257,VALID,116,VALID,0.667969,
2001-10-26, 00:20:00,VALID,915.741,VALID,0,VALID,97.6096,VALID,0,VALID,19.8091,VALID,122,VALID,0.497122,
2001-10-26, 00:21:00,VALID,915.758,VALID,0,VALID,97.6719,VALID,0,VALID,19.8091,VALID,133,VALID,0.758013,
2001-10-26, 00:22:00,VALID,915.762,VALID,0,VALID,97.7711,VALID,0,VALID,19.8185,VALID,143,VALID,0.782031,
2001-10-26, 00:23:00,VALID,915.78,VALID,0,VALID,97.8347,VALID,-0.0169808,VALID,19.8443,VALID,146,VALID,0.653577,
2001-10-26, 00:24:00,VALID,915.793,VALID,0,VALID,97.8093,VALID,0,VALID,19.8513,VALID,136,VALID,0.327097,
2001-10-26, 00:25:00,VALID,915.802,VALID,0,VALID,97.7279,VALID,-0.0509425,VALID,19.8642,VALID,135,VALID,0.11472,
2001-10-26, 00:26:00,VALID,915.802,VALID,0,VALID,97.6287,VALID,0,VALID,19.8379,VALID,111,VALID,0.355674,
2001-10-26, 00:27:00,VALID,915.801,VALID,0,VALID,97.6147,VALID,-0.0339617,VALID,19.8287,VALID,86,VALID,0.381373,
2001-10-26, 00:28:00,VALID,915.808,VALID,0,VALID,97.7203,VALID,-0.0169808,VALID,19.8545,VALID,103,VALID,0.309416,
2001-10-26, 00:29:00,VALID,915.808,VALID,0,VALID,97.7292,VALID,-0.0339617,VALID,19.8766,VALID,110,VALID,0,
2001-10-26, 00:30:00,VALID,915.818,VALID,0,VALID,97.6478,VALID,-0.0339617,VALID,19.8965,VALID,109,VALID,0.132031,
2001-10-26, 00:31:00,VALID,915.801,VALID,0,VALID,97.5473,VALID,0,VALID,19.9157,VALID,101,VALID,0.524671,
2001-10-26, 00:32:00,VALID,915.802,VALID,0,VALID,97.4342,VALID,0,VALID,19.9388,VALID,70,VALID,0.553043,
2001-10-26, 00:33:00,VALID,915.799,VALID,0,VALID,97.3388,VALID,-0.0169808,VALID,19.9932,VALID,43,VALID,0.505551,
2001-10-26, 00:34:00,VALID,915.779,VALID,0,VALID,97.0756,VALID,0,VALID,20.032,VALID,63,VALID,0.884868,
2001-10-26, 00:35:00,VALID,915.778,VALID,0,VALID,96.7348,VALID,0,VALID,20.0548,VALID,48,VALID,0.719778,
2001-10-26, 00:36:00,VALID,915.786,VALID,0,VALID,96.3482,VALID,-0.0169808,VALID,20.061,VALID,43,VALID,0.467105,
2001-10-26, 00:37:00,VALID,915.801,VALID,0,VALID,96.1918,VALID,0,VALID,20.0638,VALID,43,VALID,0.429287,
2001-10-26, 00:38:00,VALID,915.788,VALID,0,VALID,96.1664,VALID,0,VALID,20.0836,VALID,43,VALID,0.341602,
2001-10-26, 00:39:00,VALID,915.778,VALID,0,VALID,96.1626,VALID,0,VALID,20.103,VALID,43,VALID,0.324424,
2001-10-26, 00:40:00,VALID,915.77,VALID,0,VALID,96.1257,VALID,0,VALID,20.1189,VALID,47,VALID,0.306743,
2001-10-26, 00:41:00,VALID,915.763,VALID,0,VALID,95.9947,VALID,-0.0339617,VALID,20.1219,VALID,65,VALID,0.307566,
2001-10-26, 00:42:00,VALID,915.746,VALID,0,VALID,95.9375,VALID,0,VALID,20.1351,VALID,66,VALID,0.0499589,
2001-10-26, 00:43:00,VALID,915.725,VALID,0,VALID,95.9883,VALID,0,VALID,20.1485,VALID,66,VALID,0.152961,
2001-10-26, 00:44:00,VALID,915.707,VALID,0,VALID,95.9515,VALID,0,VALID,20.145,VALID,66,VALID,0.261308,
2001-10-26, 00:45:00,VALID,915.68,VALID,0,VALID,95.9171,VALID,0,VALID,20.1348,VALID,66,VALID,0.305288,
2001-10-26, 00:46:00,VALID,915.646,VALID,0,VALID,95.8332,VALID,0,VALID,20.1415,VALID,66,VALID,0.173438,
2001-10-26, 00:47:00,VALID,915.626,VALID,0,VALID,95.8383,VALID,0,VALID,20.1249,VALID,77,VALID,0.336965,
2001-10-26, 00:48:00,VALID,915.603,VALID,0,VALID,95.8764,VALID,0,VALID,20.1388,VALID,80,VALID,0.453331,
2001-10-26, 00:49:00,VALID,915.598,VALID,0,VALID,95.8803,VALID,0,VALID,20.1329,VALID,10,VALID,0.036801,
2001-10-26, 00:50:00,VALID,915.586,VALID,0,VALID,95.9426,VALID,0,VALID,20.1157,VALID,10,VALID,0,
2001-10-26, 00:51:00,VALID,915.598,VALID,0,VALID,95.982,VALID,0,VALID,20.1122,VALID,58,VALID,0.175576,
2001-10-26, 00:52:00,VALID,915.59,VALID,0,VALID,96.0379,VALID,-0.0169808,VALID,20.103,VALID,118,VALID,0.337171,
2001-10-26, 00:53:00,VALID,915.593,VALID,0,VALID,96.1905,VALID,0,VALID,20.1028,VALID,160,VALID,0.508614,
2001-10-26, 00:54:00,VALID,915.581,VALID,0,VALID,96.2834,VALID,0,VALID,20.0931,VALID,160,VALID,0.372266,
2001-10-26, 00:55:00,VALID,915.568,VALID,0,VALID,96.3876,VALID,0,VALID,20.0836,VALID,160,VALID,0.329564,
2001-10-26, 00:56:00,VALID,915.568,VALID,0,VALID,96.5148,VALID,-0.0169808,VALID,20.0777,VALID,160,VALID,0.269326,
2001-10-26, 00:57:00,VALID,915.552,VALID,0,VALID,96.6267,VALID,-0.0169808,VALID,20.0541,VALID,158,VALID,0.365543,
2001-10-26, 00:58:00,VALID,915.536,VALID,0,VALID,96.6915,VALID,0,VALID,20.0546,VALID,158,VALID,0.00411184,
2001-10-26, 00:59:00,VALID,915.516,VALID,0,VALID,96.7526,VALID,0,VALID,20.0414,VALID,135,VALID,0.239515,
2001-10-26, 01:00:00,VALID,915.516,VALID,0,VALID,96.7818,VALID,-0.0169808,VALID,20.0252,VALID,97,VALID,0.304071,
2001-10-26, 01:01:00,VALID,915.51,VALID,0,VALID,96.7246,VALID,0,VALID,19.9964,VALID,86,VALID,0.00761218,
2001-10-26, 01:02:00,VALID,915.52,VALID,0,VALID,96.7945,VALID,-0.0339617,VALID,19.9676,VALID,48,VALID,0.148633,
2001-10-26, 01:03:00,VALID,915.517,VALID,0,VALID,96.7717,VALID,-0.0169808,VALID,19.9249,VALID,44,VALID,0.447985,
2001-10-26, 01:04:00,VALID,915.52,VALID,0,VALID,96.9166,VALID,0.0169808,VALID,19.9057,VALID,32,VALID,0.723273,
2001-10-26, 01:05:00,VALID,915.527,VALID,0,VALID,97.1557,VALID,0,VALID,19.899,VALID,26,VALID,0.996711,
2001-10-26, 01:06:00,VALID,915.537,VALID,0,VALID,97.1582,VALID,0,VALID,19.8799,VALID,32,VALID,1.36739,
2001-10-26, 01:07:00,VALID,915.523,VALID,0,VALID,97.1862,VALID,0,VALID,19.8406,VALID,32,VALID,1.10691,
2001-10-26, 01:08:00,VALID,915.515,VALID,0,VALID,97.2777,VALID,0,VALID,19.815,VALID,44,VALID,1.04893,
2001-10-26, 01:09:00,VALID,915.512,VALID,0,VALID,97.4748,VALID,0,VALID,19.8153,VALID,51,VALID,0.985978,
2001-10-26, 01:10:00,VALID,915.497,VALID,0,VALID,97.5639,VALID,0,VALID,19.8215,VALID,60,VALID,0.879687,
2001-10-26, 01:11:00,VALID,915.469,VALID,0,VALID,97.6134,VALID,0.0169808,VALID,19.8287,VALID,60,VALID,0.82134,
2001-10-26, 01:12:00,VALID,915.462,VALID,0,VALID,97.6592,VALID,0,VALID,19.8351,VALID,57,VALID,0.693668,
2001-10-26, 01:13:00,VALID,915.45,VALID,0,VALID,97.677,VALID,0,VALID,19.8376,VALID,57,VALID,0.583882,
2001-10-26, 01:14:00,VALID,915.439,VALID,0,VALID,97.677,VALID,0.0169808,VALID,19.8376,VALID,58,VALID,0.377467,
2001-10-26, 01:15:00,VALID,915.43,VALID,0,VALID,97.7076,VALID,0,VALID,19.8245,VALID,58,VALID,0.221834,
2001-10-26, 01:16:00,VALID,915.411,VALID,0,VALID,97.7788,VALID,0,VALID,19.8441,VALID,58,VALID,0.0534539,
2001-10-26, 01:17:00,VALID,915.396,VALID,0,VALID,97.794,VALID,0,VALID,19.8374,VALID,58,VALID,0,
2001-10-26, 01:18:00,VALID,915.382,VALID,0,VALID,97.7508,VALID,0,VALID,19.8448,VALID,58,VALID,0.0498047,
2001-10-26, 01:19:00,VALID,915.375,VALID,0,VALID,97.7482,VALID,0,VALID,19.8247,VALID,58,VALID,0.198808,
2001-10-26, 01:20:00,VALID,915.364,VALID,0,VALID,97.7851,VALID,0.0339617,VALID,19.822,VALID,58,VALID,0.1581,
2001-10-26, 01:21:00,VALID,915.357,VALID,0,VALID,97.8195,VALID,0,VALID,19.7922,VALID,58,VALID,0.137336,
2001-10-26, 01:22:00,VALID,915.346,VALID,0,VALID,97.869,VALID,-0.0509425,VALID,19.7927,VALID,58,VALID,0,
2001-10-26, 01:23:00,VALID,915.347,VALID,0,VALID,97.9962,VALID,0,VALID,19.7959,VALID,58,VALID,0.00719572,
2001-10-26, 01:24:00,VALID,915.352,VALID,0,VALID,98.0649,VALID,0,VALID,19.8217,VALID,58,VALID,0,
2001-10-26, 01:25:00,VALID,915.342,VALID,0,VALID,98.0522,VALID,-0.0169808,VALID,19.8155,VALID,58,VALID,0.141026,
2001-10-26, 01:26:00,VALID,915.342,VALID,0,VALID,98.0344,VALID,-0.0169808,VALID,19.7996,VALID,58,VALID,0.522852,
2001-10-26, 01:27:00,VALID,915.354,VALID,0,VALID,97.9593,VALID,-0.0339617,VALID,19.7802,VALID,56,VALID,0.676192,
2001-10-26, 01:28:00,VALID,915.335,VALID,0,VALID,97.9148,VALID,-0.0169808,VALID,19.7477,VALID,52,VALID,0.677426,
2001-10-26, 01:29:00,VALID,915.328,VALID,0,VALID,97.9186,VALID,-0.0169808,VALID,19.7221,VALID,52,VALID,0.644326,
2001-10-26, 01:30:00,VALID,915.32,VALID,0,VALID,98.0115,VALID,0,VALID,19.6987,VALID,54,VALID,0.589844,
2001-10-26, 01:31:00,VALID,915.317,VALID,0,VALID,98.0585,VALID,-0.0169808,VALID,19.7032,VALID,77,VALID,0.62315,
2001-10-26, 01:32:00,VALID,915.306,VALID,0,VALID,98.0458,VALID,0,VALID,19.693,VALID,90,VALID,0.52611,
2001-10-26, 01:33:00,VALID,915.288,VALID,0,VALID,98.0394,VALID,0,VALID,19.6828,VALID,107,VALID,0.746995,
2001-10-26, 01:34:00,VALID,915.259,VALID,0,VALID,97.9987,VALID,-0.0169808,VALID,19.6759,VALID,109,VALID,0.701758,
2001-10-26, 01:35:00,VALID,915.26,VALID,0,VALID,97.9352,VALID,-0.0169808,VALID,19.6923,VALID,110,VALID,0.822574,
2001-10-26, 01:36:00,VALID,915.234,VALID,0,VALID,97.8601,VALID,0,VALID,19.6992,VALID,108,VALID,0.830387,
2001-10-26, 01:37:00,VALID,915.244,VALID,0,VALID,97.7864,VALID,0,VALID,19.7025,VALID,108,VALID,0.412212,
2001-10-26, 01:38:00,VALID,915.248,VALID,0,VALID,97.7126,VALID,0.0169808,VALID,19.6957,VALID,110,VALID,0.635896,
2001-10-26, 01:39:00,VALID,915.242,VALID,0,VALID,97.6274,VALID,0,VALID,19.6793,VALID,108,VALID,0.668174,
2001-10-26, 01:40:00,VALID,915.254,VALID,0,VALID,97.6491,VALID,0,VALID,19.6736,VALID,101,VALID,0.778577,
2001-10-26, 01:41:00,VALID,915.239,VALID,0,VALID,97.7037,VALID,-0.0169808,VALID,19.6801,VALID,103,VALID,0.734575,
2001-10-26, 01:42:00,VALID,915.232,VALID,0,VALID,97.7699,VALID,0,VALID,19.6801,VALID,108,VALID,0.831445,
2001-10-26, 01:43:00,VALID,915.224,VALID,0,VALID,97.7978,VALID,0,VALID,19.6831,VALID,111,VALID,0.724918,
2001-10-26, 01:44:00,VALID,915.201,VALID,0,VALID,97.7851,VALID,0,VALID,19.6796,VALID,116,VALID,0.667763,
2001-10-26, 01:45:00,VALID,915.185,VALID,0,VALID,97.8042,VALID,0,VALID,19.6664,VALID,117,VALID,0.518914,
2001-10-26, 01:46:00,VALID,915.159,VALID,0,VALID,97.8512,VALID,0,VALID,19.6898,VALID,114,VALID,0.479441,
2001-10-26, 01:47:00,VALID,915.131,VALID,0,VALID,97.8512,VALID,0,VALID,19.6928,VALID,123,VALID,0.77611,
2001-10-26, 01:48:00,VALID,915.115,VALID,0,VALID,97.8576,VALID,0,VALID,19.6995,VALID,128,VALID,0.573396,
2001-10-26, 01:49:00,VALID,915.09,VALID,0,VALID,97.8754,VALID,-0.0169808,VALID,19.6997,VALID,127,VALID,0.645232,
2001-10-26, 01:50:00,VALID,915.07,VALID,0,VALID,97.8767,VALID,0,VALID,19.6962,VALID,132,VALID,0.717383,
2001-10-26, 01:51:00,VALID,915.05,VALID,0,VALID,97.8843,VALID,0,VALID,19.6826,VALID,130,VALID,0.746711,
2001-10-26, 01:52:00,VALID,915.035,VALID,0,VALID,97.9161,VALID,-0.0169808,VALID,19.6957,VALID,112,VALID,0.505345,
2001-10-26, 01:53:00,VALID,915.017,VALID,0,VALID,97.8894,VALID,0,VALID,19.6957,VALID,112,VALID,0.895354,
2001-10-26, 01:54:00,VALID,914.998,VALID,0,VALID,97.8792,VALID,0,VALID,19.6925,VALID,101,VALID,0.812089,
2001-10-26, 01:55:00,VALID,914.978,VALID,0,VALID,97.8729,VALID,-0.0169808,VALID,19.6831,VALID,95,VALID,0.794819,
2001-10-26, 01:56:00,VALID,914.964,VALID,0,VALID,97.8373,VALID,0,VALID,19.6699,VALID,97,VALID,0.963405,
2001-10-26, 01:57:00,VALID,914.952,VALID,0,VALID,97.808,VALID,-0.0339617,VALID,19.6605,VALID,94,VALID,0.763421,
2001-10-26, 01:58:00,VALID,914.946,VALID,0,VALID,97.8004,VALID,0,VALID,19.6605,VALID,97,VALID,0.764453,
2001-10-26, 01:59:00,VALID,914.911,VALID,0,VALID,97.7877,VALID,0,VALID,19.6508,VALID,103,VALID,1.03413,
2001-10-26, 02:00:00,VALID,914.894,VALID,0,VALID,97.7737,VALID,0,VALID,19.6508,VALID,108,VALID,1.05551,
2001-10-26, 02:01:00,VALID,914.873,VALID,0,VALID,97.7737,VALID,0,VALID,19.654,VALID,119,VALID,0.916735,
2001-10-26, 02:02:00,VALID,914.853,VALID,0,VALID,97.7393,VALID,0,VALID,19.6707,VALID,124,VALID,0.965049,
2001-10-26, 02:03:00,VALID,914.826,VALID,0,VALID,97.7355,VALID,-0.0339617,VALID,19.6736,VALID,130,VALID,0.616776,
2001-10-26, 02:04:00,VALID,914.798,VALID,0,VALID,97.7215,VALID,-0.0339617,VALID,19.6833,VALID,124,VALID,1.14556,
2001-10-26, 02:05:00,VALID,914.782,VALID,0,VALID,97.6796,VALID,-0.0679233,VALID,19.703,VALID,132,VALID,0.979768,
2001-10-26, 02:06:00,VALID,914.769,VALID,0,VALID,97.6376,VALID,-0.0509425,VALID,19.7027,VALID,141,VALID,0.880273,
2001-10-26, 02:07:00,VALID,914.762,VALID,0,VALID,97.6134,VALID,-0.0679233,VALID,19.7191,VALID,141,VALID,0.786184,
2001-10-26, 02:08:00,VALID,914.752,VALID,0,VALID,97.5855,VALID,-0.0849042,VALID,19.7186,VALID,145,VALID,1.03516,
2001-10-26, 02:09:00,VALID,914.758,VALID,0,VALID,97.5817,VALID,-0.0509425,VALID,19.7159,VALID,140,VALID,0.903783,
2001-10-26, 02:10:00,VALID,914.74,VALID,0,VALID,97.5715,VALID,-0.0509425,VALID,19.7154,VALID,134,VALID,0.782278,
2001-10-26, 02:11:00,VALID,914.736,VALID,0,VALID,97.5677,VALID,-0.0169808,VALID,19.7124,VALID,126,VALID,0.744449,
2001-10-26, 02:12:00,VALID,914.738,VALID,0,VALID,97.6096,VALID,-0.0339617,VALID,19.7025,VALID,127,VALID,0.55037,
2001-10-26, 02:13:00,VALID,914.718,VALID,0,VALID,97.6452,VALID,-0.0339617,VALID,19.6995,VALID,108,VALID,0.466546,
2001-10-26, 02:14:00,VALID,914.707,VALID,0,VALID,97.6541,VALID,-0.0169808,VALID,19.693,VALID,128,VALID,0.549609,
2001-10-26, 02:15:00,VALID,914.695,VALID,0,VALID,97.6948,VALID,-0.0339617,VALID,19.6803,VALID,139,VALID,0.731291,
2001-10-26, 02:16:00,VALID,914.687,VALID,0,VALID,97.7584,VALID,-0.0679233,VALID,19.6577,VALID,145,VALID,0.721628,
2001-10-26, 02:17:00,VALID,914.664,VALID,0,VALID,97.8385,VALID,-0.0679233,VALID,19.6381,VALID,148,VALID,0.91653,
2001-10-26, 02:18:00,VALID,914.652,VALID,0,VALID,97.9237,VALID,-0.0679233,VALID,19.6319,VALID,144,VALID,1.25473,
2001-10-26, 02:19:00,VALID,914.653,VALID,0,VALID,98.0115,VALID,-0.0509425,VALID,19.6155,VALID,142,VALID,1.1322,
2001-10-26, 02:20:00,VALID,914.655,VALID,0,VALID,98.0623,VALID,-0.0679233,VALID,19.6063,VALID,143,VALID,1.07278,
2001-10-26, 02:21:00,VALID,914.658,VALID,0,VALID,98.1277,VALID,-0.0679233,VALID,19.6068,VALID,139,VALID,0.866806,
2001-10-26, 02:22:00,VALID,914.661,VALID,0,VALID,98.1768,VALID,-0.0509425,VALID,19.5968,VALID,126,VALID,0.656055,
2001-10-26, 02:23:00,VALID,914.654,VALID,0,VALID,98.2022,VALID,-0.101885,VALID,19.5901,VALID,120,VALID,0.524877,
2001-10-26, 02:24:00,VALID,914.649,VALID,0,VALID,98.2353,VALID,-0.0339617,VALID,19.5807,VALID,132,VALID,0.429688,
2001-10-26, 02:25:00,VALID,914.652,VALID,0,VALID,98.2251,VALID,-0.101885,VALID,19.5874,VALID,129,VALID,0.462993,
2001-10-26, 02:26:00,VALID,914.645,VALID,0,VALID,98.2111,VALID,-0.0339617,VALID,19.5832,VALID,130,VALID,0.535773,
2001-10-26, 02:27:00,VALID,914.636,VALID,0,VALID,98.1933,VALID,-0.0679233,VALID,19.5832,VALID,118,VALID,0.119243,
2001-10-26, 02:28:00,VALID,914.628,VALID,0,VALID,98.1997,VALID,-0.0849042,VALID,19.6065,VALID,123,VALID,0.393914,
2001-10-26, 02:29:00,VALID,914.619,VALID,0,VALID,98.1501,VALID,-0.101885,VALID,19.5964,VALID,142,VALID,0.667668,
2001-10-26, 02:30:00,VALID,914.604,VALID,0,VALID,98.0674,VALID,-0.0679233,VALID,19.5998,VALID,126,VALID,0.825391,
2001-10-26, 02:31:00,VALID,914.599,VALID,0,VALID,97.9797,VALID,-0.0169808,VALID,19.613,VALID,120,VALID,0.539063,
2001-10-26, 02:32:00,VALID,914.587,VALID,0,VALID,97.9008,VALID,-0.0339617,VALID,19.619,VALID,120,VALID,0.460321,
2001-10-26, 02:33:00,VALID,914.58,VALID,0,VALID,97.8576,VALID,-0.0679233,VALID,19.6254,VALID,123,VALID,0.275905,
2001-10-26, 02:34:00,VALID,914.581,VALID,0,VALID,97.7686,VALID,-0.0509425,VALID,19.6351,VALID,114,VALID,0.918791,
2001-10-26, 02:35:00,VALID,914.58,VALID,0,VALID,97.6758,VALID,-0.0169808,VALID,19.6319,VALID,117,VALID,0.912212,
2001-10-26, 02:36:00,VALID,914.583,VALID,0,VALID,97.5804,VALID,-0.0339617,VALID,19.6582,VALID,116,VALID,0.762747,
2001-10-26, 02:37:00,VALID,914.591,VALID,0,VALID,97.4965,VALID,-0.0679233,VALID,19.6644,VALID,120,VALID,0.765224,
2001-10-26, 02:38:00,VALID,914.592,VALID,0,VALID,97.4265,VALID,-0.0169808,VALID,19.6707,VALID,124,VALID,0.597461,
2001-10-26, 02:39:00,VALID,914.603,VALID,0,VALID,97.3871,VALID,-0.0509425,VALID,19.6771,VALID,112,VALID,0.240954,
2001-10-26, 02:40:00,VALID,914.613,VALID,0,VALID,97.3121,VALID,-0.0509425,VALID,19.6734,VALID,114,VALID,0.589227,
2001-10-26, 02:41:00,VALID,914.607,VALID,0,VALID,97.2447,VALID,-0.0339617,VALID,19.6672,VALID,114,VALID,0.568257,
2001-10-26, 02:42:00,VALID,914.599,VALID,0,VALID,97.2841,VALID,-0.0339617,VALID,19.6547,VALID,113,VALID,0.690173,
2001-10-26, 02:43:00,VALID,914.583,VALID,0,VALID,97.2956,VALID,-0.0509425,VALID,19.6515,VALID,96,VALID,0.678043,
2001-10-26, 02:44:00,VALID,914.564,VALID,0,VALID,97.2154,VALID,-0.0169808,VALID,19.6351,VALID,95,VALID,0.710321,
2001-10-26, 02:45:00,VALID,914.541,VALID,0,VALID,97.1964,VALID,-0.0679233,VALID,19.6125,VALID,97,VALID,0.93109,
2001-10-26, 02:46:00,VALID,914.532,VALID,0,VALID,97.2396,VALID,-0.0679233,VALID,19.6162,VALID,89,VALID,0.895898,
2001-10-26, 02:47:00,VALID,914.517,VALID,0,VALID,97.218,VALID,-0.0679233,VALID,19.6001,VALID,92,VALID,1.00761,
2001-10-26, 02:48:00,VALID,914.497,VALID,0,VALID,97.2294,VALID,-0.0169808,VALID,19.5827,VALID,94,VALID,0.904811,
2001-10-26, 02:49:00,VALID,914.486,VALID,0,VALID,97.2129,VALID,0,VALID,19.5762,VALID,92,VALID,0.726563,
2001-10-26, 02:50:00,VALID,914.494,VALID,0,VALID,97.1951,VALID,0.0339617,VALID,19.5665,VALID,90,VALID,0.973684,
2001-10-26, 02:51:00,VALID,914.486,VALID,0,VALID,97.1976,VALID,0.0679233,VALID,19.5464,VALID,106,VALID,0.865132,
2001-10-26, 02:52:00,VALID,914.486,VALID,0,VALID,97.2663,VALID,0.0509425,VALID,19.5333,VALID,112,VALID,0.940995,
2001-10-26, 02:53:00,VALID,914.474,VALID,0,VALID,97.2688,VALID,0.0679233,VALID,19.5531,VALID,94,VALID,0.639223,
2001-10-26, 02:54:00,VALID,914.475,VALID,0,VALID,97.2485,VALID,0.0679233,VALID,19.5437,VALID,105,VALID,0.764648,
2001-10-26, 02:55:00,VALID,914.482,VALID,0,VALID,97.2472,VALID,0.0509425,VALID,19.5437,VALID,101,VALID,0.803865,
2001-10-26, 02:56:00,VALID,914.47,VALID,0,VALID,97.2307,VALID,-0.0339617,VALID,19.5477,VALID,99,VALID,0.385896,
2001-10-26, 02:57:00,VALID,914.469,VALID,0,VALID,97.1798,VALID,-0.0339617,VALID,19.5611,VALID,109,VALID,0.546053,
2001-10-26, 02:58:00,VALID,914.468,VALID,0,VALID,97.1646,VALID,-0.0339617,VALID,19.5673,VALID,128,VALID,0.815173,
2001-10-26, 02:59:00,VALID,914.47,VALID,0,VALID,97.0781,VALID,-0.0339617,VALID,19.5678,VALID,122,VALID,0.793791,
2001-10-26, 03:00:00,VALID,914.464,VALID,0,VALID,97.073,VALID,0,VALID,19.5449,VALID,132,VALID,0.645354,
2001-10-26, 03:01:00,VALID,914.462,VALID,0,VALID,97.1366,VALID,-0.0339617,VALID,19.5288,VALID,143,VALID,0.719151,
2001-10-26, 03:02:00,VALID,914.475,VALID,0,VALID,97.3121,VALID,0,VALID,19.5322,VALID,131,VALID,0.789648,
2001-10-26, 03:03:00,VALID,914.487,VALID,0,VALID,97.41,VALID,-0.0339617,VALID,19.5091,VALID,124,VALID,0.78639,
2001-10-26, 03:04:00,VALID,914.489,VALID,0,VALID,97.4952,VALID,0,VALID,19.499,VALID,130,VALID,0.475946,
2001-10-26, 03:05:00,VALID,914.497,VALID,0,VALID,97.5397,VALID,-0.0339617,VALID,19.4995,VALID,136,VALID,0.435033,
2001-10-26, 03:06:00,VALID,914.521,VALID,0,VALID,97.5842,VALID,-0.0509425,VALID,19.4927,VALID,133,VALID,0.261719,
2001-10-26, 03:07:00,VALID,914.53,VALID,0,VALID,97.574,VALID,-0.0169808,VALID,19.49,VALID,133,VALID,0.175164,
2001-10-26, 03:08:00,VALID,914.535,VALID,0,VALID,97.5537,VALID,-0.0339617,VALID,19.4739,VALID,130,VALID,0.184416,
2001-10-26, 03:09:00,VALID,914.543,VALID,0,VALID,97.5283,VALID,-0.0339617,VALID,19.4478,VALID,128,VALID,0,
2001-10-26, 03:10:00,VALID,914.561,VALID,0,VALID,97.5626,VALID,-0.0339617,VALID,19.4445,VALID,128,VALID,0,
2001-10-26, 03:11:00,VALID,914.554,VALID,0,VALID,97.6147,VALID,-0.0509425,VALID,19.4378,VALID,142,VALID,0.216488,
2001-10-26, 03:12:00,VALID,914.557,VALID,0,VALID,97.6656,VALID,-0.0679233,VALID,19.448,VALID,287,VALID,0.252673,
2001-10-26, 03:13:00,VALID,914.559,VALID,0,VALID,97.6758,VALID,-0.0339617,VALID,19.4515,VALID,282,VALID,0.471217,
2001-10-26, 03:14:00,VALID,914.561,VALID,0,VALID,97.7292,VALID,-0.0509425,VALID,19.442,VALID,275,VALID,0.480674,
2001-10-26, 03:15:00,VALID,914.555,VALID,0,VALID,97.8029,VALID,-0.0169808,VALID,19.4517,VALID,264,VALID,0.0610609,
2001-10-26, 03:16:00,VALID,914.539,VALID,0,VALID,97.8182,VALID,-0.0339617,VALID,19.4386,VALID,264,VALID,0,
2001-10-26, 03:17:00,VALID,914.544,VALID,0,VALID,97.8093,VALID,-0.0509425,VALID,19.4229,VALID,264,VALID,0,
2001-10-26, 03:18:00,VALID,914.525,VALID,0,VALID,97.8029,VALID,0.0509425,VALID,19.415,VALID,264,VALID,0,
2001-10-26, 03:19:00,VALID,914.539,VALID,0,VALID,97.7584,VALID,0.0509425,VALID,19.3887,VALID,263,VALID,0,
2001-10-26, 03:20:00,VALID,914.528,VALID,0,VALID,97.7788,VALID,0.0509425,VALID,19.3695,VALID,262,VALID,0,
2001-10-26, 03:21:00,VALID,914.539,VALID,0,VALID,97.8309,VALID,0.0509425,VALID,19.3494,VALID,192,VALID,0.192229,
2001-10-26, 03:22:00,VALID,914.552,VALID,0,VALID,97.8919,VALID,0.101885,VALID,19.3561,VALID,154,VALID,0.385485,
2001-10-26, 03:23:00,VALID,914.551,VALID,0,VALID,97.9619,VALID,0.0679233,VALID,19.3564,VALID,148,VALID,0.666118,
2001-10-26, 03:24:00,VALID,914.557,VALID,0,VALID,98.0229,VALID,0.0679233,VALID,19.3693,VALID,139,VALID,0.650288,
2001-10-26, 03:25:00,VALID,914.565,VALID,0,VALID,98,VALID,0.0849042,VALID,19.369,VALID,138,VALID,0.481771,
2001-10-26, 03:26:00,VALID,914.58,VALID,0,VALID,97.986,VALID,0.0509425,VALID,19.3593,VALID,138,VALID,0.388086,
2001-10-26, 03:27:00,VALID,914.594,VALID,0,VALID,98.0204,VALID,0.0849042,VALID,19.3529,VALID,138,VALID,0.304071,
2001-10-26, 03:28:00,VALID,914.595,VALID,0,VALID,98.056,VALID,0.101885,VALID,19.3631,VALID,138,VALID,0.0620888,
2001-10-26, 03:29:00,VALID,914.607,VALID,0,VALID,98.0204,VALID,0.101885,VALID,19.3496,VALID,138,VALID,0,
2001-10-26, 03:30:00,VALID,914.595,VALID,0,VALID,97.8144,VALID,0.0679233,VALID,19.3072,VALID,138,VALID,0,
2001-10-26, 03:31:00,VALID,914.595,VALID,0,VALID,97.6821,VALID,0.0849042,VALID,19.2629,VALID,138,VALID,0,
2001-10-26, 03:32:00,VALID,914.595,VALID,0,VALID,97.719,VALID,0.0849042,VALID,19.2468,VALID,138,VALID,0,
2001-10-26, 03:33:00,VALID,914.569,VALID,0,VALID,97.7699,VALID,0.0169808,VALID,19.2286,VALID,138,VALID,0,
2001-10-26, 03:34:00,VALID,914.576,VALID,0,VALID,97.8093,VALID,-0.0509425,VALID,19.2192,VALID,138,VALID,0,
2001-10-26, 03:35:00,VALID,914.576,VALID,0,VALID,97.836,VALID,-0.0169808,VALID,19.2157,VALID,138,VALID,0,